Regional Weather Roundup
Issued by NWS

Home | Current Version | Previous Version | Graphics & Text | Print | Product List | Glossary On
Versions: 1 2 3 4 5 6 7 8 9 10 11 12 13 14 15 16 17 18 19 20 21 22 23 24 25 26 27 28 29 30 31 32 33 34 35 36 37 38 39 40 41 42 43 44 45 46 47 48 49 50
000
ASUS43 KFSD 202302
RWRSD

WEATHER ROUNDUP FOR SOUTH DAKOTA
NATIONAL WEATHER SERVICE SIOUX FALLS SD
600 PM CDT FRI OCT 20 2017

NOTE: "FAIR" INDICATES FEW OR NO CLOUDS BELOW 12,000 FEET WITH NO
SIGNIFICANT WEATHER AND/OR OBSTRUCTIONS TO VISIBILITY.


SDZ001>005-009-010-012>017-210000-
NORTHWEST AND NORTH CENTRAL SOUTH DAKOTA

CITY           SKY/WX    TMP DP  RH WIND       PRES   REMARKS
BUFFALO          N/A     80  33  18 SW22      29.20S
FAITH            N/A     82  36  19 S21G30    29.29S
MOBRIDGE       MOCLDY    78  53  41 S23G29    29.28F
$$

SDZ012>016-024>037-041>051-057-063-072>074-210000-
SOUTHWEST AND SOUTH CENTRAL SOUTH DAKOTA

CITY           SKY/WX    TMP DP  RH WIND       PRES   REMARKS
RAPID CTY ARPT CLEAR     79  34  19 SW16G28   29.33F
PIERRE         MOCLDY    75  53  46 S23G31    29.35F
CUSTER         PTCLDY    69  27  20 SW10G18   29.48F
ELLSWORTH AFB  PTCLDY    79  37  22 SW15      29.33S
PHILIP         CLEAR     79  45  29 S18       29.33S
PINE RIDGE     PTCLDY    76  40  27 S14       29.41F
SPEARFISH      FAIR      77  32  19 SW20      29.35S
WINNER         FAIR      72  54  53 S22G30    29.44F
$$

SDZ004>011-016>023-039-040-210000-
NORTHEAST SOUTH DAKOTA

CITY           SKY/WX    TMP DP  RH WIND       PRES   REMARKS
ABERDEEN       PTCLDY    73  55  53 S21G30    29.41F
WATERTOWN      PTCLDY    70  54  56 S25G33    29.51F
BROOKINGS      CLEAR     71  55  56 S23G30    29.56S
SISSETON         N/A     74  55  51 S21G28    29.45F
$$

SDZ017-020-022-023-036>040-048>070-210000-
SOUTHEAST SOUTH DAKOTA

CITY           SKY/WX    TMP DP  RH WIND       PRES   REMARKS
SIOUX FALLS    PTCLDY    74  58  57 S28G39    29.58F
HURON          MOCLDY    73  54  51 S18G25    29.46F
CHAMBERLAIN    CLEAR     74  56  53 S22       29.45F
MITCHELL       PTCLDY    75  55  49 S20G30    29.50F
YANKTON        MOCLDY    74  58  57 S24G40    29.55S
$$

ABBREVIATIONS USED IN REMARKS
   TC - TEMPERATURE IN CELSIUS
  WCI - WIND CHILL INDEX
   HX - HEAT INDEX
  VSB - VISIBILITY





USA.gov is the U.S. government's official web portal to all federal, state and local government web resources and services.